Flag for Germany Weather past 2 weeks in Bad Hersfeld, Hesse, Germany

Now
57 °F

Partly sunny.


Feels Like: 57 °F
Forecast: 40 / 66 °F
Wind: 2 mph from North

Location: Fritzlar Airport

Current Time: May 22, 2015 at 11:20:10 AM

Latest Report: May 22, 2015 at 10:20 AM


Visibility: N/A

Pressure: 30.33 "Hg

Humidity: 59%

Dew point: 43 °F

Location of Bad HersfeldLocation

Historic Weather in Bad Hersfeld — Graph

°F

Bad Hersfeld temperature yesterday

Maximum temperature yesterday: 61 °F (at 6:20 PM)
Minimum temperature yesterday: 37 °F (at 6:20 AM)
Average temperature yesterday: 50 °F

Past Weeks' High & Low Weather Summary

 TemperatureHumidityPressure
High79 °F (May 12, 2:20 PM)100% (May 12, 5:20 AM)30.33 "Hg (May 12, 5:20 AM)
Low36 °F (May 17, 5:20 AM)34% (May 10, 4:20 PM)29.65 "Hg (May 18, 7:20 PM)
Average54 °F66%30.05 "Hg
* Reported May 7 9:20 AM — May 22 9:20 AM, Bad Hersfeld, Weather by CustomWeather, © 2015

Note: Actual official high and low records may vary slightly from our data, if they occured in-between our weather recording intervals... More about our weather records

Advertising

Bad Hersfeld weather history for previous 24 hours

 ConditionsComfort  
Time TempWeatherWind HumidityBarometerVisibility
9:20 AM
Fri, May 22
54 °FScattered clouds.2 mph63%30.33 "HgN/A
8:20 AM48 °FPassing clouds.2 mph76%30.33 "HgN/A
7:20 AM43 °FPassing clouds.2 mph87%30.33 "HgN/A
6:20 AM39 °FPassing clouds.2 mph93%30.33 "HgN/A
5:20 AM39 °FFog.2 mph93%30.33 "HgN/A
4:20 AM43 °FPassing clouds.1 mph87%30.33 "HgN/A
3:20 AM45 °FPartly cloudy.2 mph81%30.33 "HgN/A
2:20 AM43 °FPartly cloudy.1 mph87%30.33 "HgN/A
1:20 AM45 °FPartly cloudy.2 mph81%30.33 "HgN/A
12:20 AM46 °FPassing clouds.1 mph76%30.33 "HgN/A
11:20 PM
Thu, May 21
46 °FPassing clouds.1 mph76%30.33 "HgN/A
10:20 PM46 °FPassing clouds.3 mph76%30.30 "HgN/A
9:20 PM50 °FPartly sunny.3 mph71%30.30 "HgN/A
8:20 PM57 °FPassing clouds.5 mph41%30.27 "HgN/A
7:20 PM59 °FPassing clouds.9 mph36%30.27 "HgN/A
6:20 PM61 °FScattered clouds.8 mph36%30.27 "HgN/A
5:20 PM59 °FScattered clouds.8 mph42%30.27 "HgN/A
5:00 PM59 °FScattered clouds.8 mph42%30.24 "HgN/A
4:20 PM59 °FScattered clouds.7 mph42%30.24 "HgN/A
3:20 PM57 °FScattered clouds.7 mph44%30.24 "HgN/A
2:20 PM57 °FScattered clouds.3 mph48%30.24 "HgN/A
1:20 PM55 °FPartly sunny.7 mph51%30.27 "HgN/A
12:20 PM54 °FPartly sunny.8 mph51%30.24 "HgN/A
11:20 AM52 °FBroken clouds.5 mph50%30.24 "HgN/A
Weather by CustomWeather, © 2015

See weather overviewHow to use our weather pages